TimeEDT,TemperatureF,Dew PointF,Humidity,Sea Level PressureIn,VisibilityMPH,Wind Direction,Wind SpeedMPH,Gust SpeedMPH,PrecipitationIn,Events,Conditions,WindDirDegrees,DateUTC
12:15 AM,69.8,69.8,100,30.13,10.0,Calm,Calm,-,N/A,,Clear,0,2013-08-18 04:15:00
12:35 AM,69.8,69.8,100,30.12,10.0,Calm,Calm,-,N/A,,Clear,0,2013-08-18 04:35:00
12:55 AM,69.8,69.8,100,30.13,10.0,Calm,Calm,-,N/A,,Clear,0,2013-08-18 04:55:00
1:15 AM,69.8,69.8,100,30.12,10.0,Calm,Calm,-,N/A,,Scattered Clouds,0,2013-08-18 05:15:00
1:35 AM,69.8,69.8,100,30.12,10.0,Calm,Calm,-,N/A,,Clear,0,2013-08-18 05:35:00
1:55 AM,69.8,69.8,100,30.12,10.0,Calm,Calm,-,N/A,,Clear,0,2013-08-18 05:55:00
2:15 AM,68.0,68.0,100,30.12,10.0,Calm,Calm,-,N/A,,Clear,0,2013-08-18 06:15:00
2:35 AM,68.0,68.0,100,30.11,10.0,Calm,Calm,-,N/A,,Clear,0,2013-08-18 06:35:00
2:55 AM,68.0,68.0,100,30.10,10.0,SE,4.6,-,N/A,,Clear,130,2013-08-18 06:55:00
3:15 AM,68.0,68.0,100,30.11,10.0,Calm,Calm,-,N/A,,Clear,0,2013-08-18 07:15:00
3:35 AM,68.0,68.0,100,30.10,10.0,Calm,Calm,-,N/A,,Clear,0,2013-08-18 07:35:00
3:55 AM,68.0,68.0,100,30.10,10.0,Calm,Calm,-,N/A,,Clear,0,2013-08-18 07:55:00
4:15 AM,68.0,68.0,100,30.10,10.0,Calm,Calm,-,N/A,,Clear,0,2013-08-18 08:15:00
4:35 AM,68.0,68.0,100,30.10,10.0,Calm,Calm,-,N/A,,Clear,0,2013-08-18 08:35:00
4:55 AM,68.0,68.0,100,30.10,10.0,SE,3.5,-,N/A,,Clear,130,2013-08-18 08:55:00
5:15 AM,68.0,68.0,100,30.10,10.0,Calm,Calm,-,N/A,,Clear,0,2013-08-18 09:15:00
5:35 AM,69.8,69.8,100,30.11,10.0,Calm,Calm,-,N/A,,Clear,0,2013-08-18 09:35:00
5:55 AM,69.8,69.8,100,30.12,10.0,Calm,Calm,-,N/A,,Scattered Clouds,0,2013-08-18 09:55:00
6:15 AM,69.8,69.8,100,30.12,10.0,Calm,Calm,-,N/A,,Mostly Cloudy,0,2013-08-18 10:15:00
6:35 AM,69.8,69.8,100,30.13,10.0,Calm,Calm,-,N/A,Rain,Light Rain,0,2013-08-18 10:35:00
6:55 AM,69.8,69.8,100,30.12,10.0,Calm,Calm,-,N/A,,Mostly Cloudy,0,2013-08-18 10:55:00
7:15 AM,69.8,69.8,100,30.13,10.0,Calm,Calm,-,N/A,,Scattered Clouds,0,2013-08-18 11:15:00
7:35 AM,69.8,69.8,100,30.13,10.0,Calm,Calm,-,N/A,,Scattered Clouds,0,2013-08-18 11:35:00
7:55 AM,71.6,71.6,100,30.13,10.0,Calm,Calm,-,N/A,,Scattered Clouds,0,2013-08-18 11:55:00
8:15 AM,71.6,71.6,100,30.14,10.0,Calm,Calm,-,N/A,,Clear,0,2013-08-18 12:15:00
8:35 AM,71.6,71.6,100,30.15,10.0,Calm,Calm,-,N/A,,Clear,0,2013-08-18 12:35:00
8:55 AM,73.4,73.4,100,30.15,10.0,Calm,Calm,-,N/A,,Clear,0,2013-08-18 12:55:00
9:15 AM,77.0,75.2,94,30.15,10.0,ENE,3.5,-,N/A,,Scattered Clouds,60,2013-08-18 13:15:00
9:35 AM,77.0,77.0,100,30.15,10.0,ENE,3.5,-,N/A,,Mostly Cloudy,60,2013-08-18 13:35:00
9:55 AM,78.8,77.0,94,30.16,10.0,Calm,Calm,-,N/A,,Scattered Clouds,0,2013-08-18 13:55:00
10:15 AM,80.6,77.0,89,30.16,10.0,Calm,Calm,-,N/A,,Scattered Clouds,0,2013-08-18 14:15:00
10:35 AM,82.4,77.0,84,30.15,10.0,East,6.9,-,N/A,,Mostly Cloudy,90,2013-08-18 14:35:00
10:55 AM,82.4,77.0,84,30.16,10.0,SE,5.8,-,N/A,,Mostly Cloudy,130,2013-08-18 14:55:00
11:15 AM,82.4,77.0,84,30.16,10.0,ESE,3.5,-,N/A,,Mostly Cloudy,110,2013-08-18 15:15:00
11:35 AM,82.4,77.0,84,30.16,10.0,SSE,3.5,-,N/A,,Mostly Cloudy,150,2013-08-18 15:35:00
11:55 AM,86.0,77.0,74,30.16,10.0,SSE,4.6,-,N/A,,Mostly Cloudy,160,2013-08-18 15:55:00
12:15 PM,84.2,77.0,79,30.16,10.0,South,4.6,-,N/A,,Mostly Cloudy,170,2013-08-18 16:15:00
12:35 PM,86.0,78.8,79,30.14,10.0,SSE,4.6,-,N/A,,Scattered Clouds,150,2013-08-18 16:35:00
12:55 PM,87.8,78.8,75,30.13,10.0,East,3.5,-,N/A,,Scattered Clouds,100,2013-08-18 16:55:00
1:15 PM,86.0,77.0,74,30.13,10.0,East,3.5,-,N/A,,Scattered Clouds,80,2013-08-18 17:15:00
1:35 PM,82.4,77.0,84,30.12,7.0,ESE,9.2,16.1,N/A,Rain,Rain,120,2013-08-18 17:35:00
1:55 PM,84.2,78.8,84,30.11,10.0,East,3.5,-,N/A,,Mostly Cloudy,100,2013-08-18 17:55:00
2:15 PM,86.0,78.8,79,30.11,10.0,ESE,3.5,-,N/A,,Clear,120,2013-08-18 18:15:00
2:35 PM,86.0,78.8,79,30.11,10.0,ESE,4.6,-,N/A,,Scattered Clouds,120,2013-08-18 18:35:00
2:55 PM,84.2,78.8,84,30.11,10.0,SE,6.9,-,N/A,,Mostly Cloudy,130,2013-08-18 18:55:00
3:15 PM,87.8,77.0,70,30.10,10.0,SE,8.1,-,N/A,,Mostly Cloudy,140,2013-08-18 19:15:00
3:35 PM,87.8,77.0,70,30.08,10.0,SE,9.2,18.4,N/A,,Scattered Clouds,130,2013-08-18 19:35:00
3:55 PM,86.0,77.0,74,30.08,10.0,SE,6.9,-,N/A,,Mostly Cloudy,140,2013-08-18 19:55:00
4:15 PM,86.0,77.0,74,30.07,10.0,SE,9.2,-,N/A,,Light Drizzle,140,2013-08-18 20:15:00
4:35 PM,86.0,77.0,74,30.06,10.0,SE,10.4,16.1,N/A,Rain,Light Rain,130,2013-08-18 20:35:00
4:55 PM,86.0,77.0,74,30.07,10.0,ESE,11.5,19.6,N/A,,Scattered Clouds,120,2013-08-18 20:55:00
5:15 PM,84.2,77.0,79,30.06,10.0,SE,8.1,16.1,N/A,,Scattered Clouds,140,2013-08-18 21:15:00
5:35 PM,82.4,77.0,84,30.08,10.0,SE,3.5,-,N/A,,Scattered Clouds,130,2013-08-18 21:35:00
5:55 PM,82.4,77.0,84,30.08,10.0,SE,3.5,-,N/A,,Scattered Clouds,130,2013-08-18 21:55:00
6:15 PM,80.6,77.0,89,30.08,10.0,ESE,5.8,-,N/A,,Scattered Clouds,120,2013-08-18 22:15:00
6:35 PM,80.6,77.0,89,30.08,10.0,SE,3.5,-,N/A,,Scattered Clouds,140,2013-08-18 22:35:00
6:55 PM,80.6,77.0,89,30.08,10.0,SE,5.8,-,N/A,,Scattered Clouds,140,2013-08-18 22:55:00
7:15 PM,80.6,77.0,89,30.10,10.0,SE,4.6,-,N/A,,Clear,130,2013-08-18 23:15:00
7:35 PM,80.6,77.0,89,30.11,10.0,SE,3.5,-,N/A,,Clear,140,2013-08-18 23:35:00
7:55 PM,80.6,77.0,89,30.11,10.0,SE,4.6,-,N/A,,Clear,140,2013-08-18 23:55:00
8:15 PM,78.8,77.0,94,30.10,10.0,ESE,3.5,-,N/A,,Clear,120,2013-08-19 00:15:00
8:35 PM,78.8,77.0,94,30.11,10.0,Calm,Calm,-,N/A,,Clear,0,2013-08-19 00:35:00
8:55 PM,78.8,77.0,94,30.11,10.0,Calm,Calm,-,N/A,,Clear,0,2013-08-19 00:55:00
9:15 PM,77.0,77.0,100,30.12,10.0,East,3.5,-,N/A,,Scattered Clouds,90,2013-08-19 01:15:00
9:35 PM,77.0,77.0,100,30.13,10.0,Calm,Calm,-,N/A,Thunderstorm,Scattered Clouds,0,2013-08-19 01:35:00
9:55 PM,77.0,77.0,100,30.13,10.0,Calm,Calm,-,N/A,Thunderstorm,Scattered Clouds,0,2013-08-19 01:55:00
10:15 PM,77.0,77.0,100,30.13,10.0,Calm,Calm,-,N/A,,Clear,0,2013-08-19 02:15:00
10:35 PM,77.0,77.0,100,30.13,10.0,Calm,Calm,-,N/A,,Scattered Clouds,0,2013-08-19 02:35:00
10:55 PM,77.0,77.0,100,30.13,10.0,Calm,Calm,-,N/A,,Scattered Clouds,0,2013-08-19 02:55:00
11:15 PM,75.2,75.2,100,30.13,10.0,ENE,3.5,-,N/A,,Clear,60,2013-08-19 03:15:00
11:35 PM,75.2,75.2,100,30.13,10.0,Calm,Calm,-,N/A,,Clear,0,2013-08-19 03:35:00
11:55 PM,75.2,75.2,100,30.13,10.0,Calm,Calm,-,N/A,,Clear,0,2013-08-19 03:55:00